TimeCST,TemperatureF,Dew PointF,Humidity,Sea Level PressureIn,VisibilityMPH,Wind Direction,Wind SpeedMPH,Gust SpeedMPH,PrecipitationIn,Events,Conditions,WindDirDegrees,DateUTC
12:26 AM,55.4,51.8,88,30.07,10.0,ESE,8.1,-,N/A,,Overcast,110,2012-12-06 06:26:00
12:56 AM,54.0,52.0,93,30.07,10.0,SE,5.8,-,N/A,,Overcast,140,2012-12-06 06:56:00
1:26 AM,53.6,51.8,94,30.06,4.0,East,5.8,-,0.00,,Light Drizzle,100,2012-12-06 07:26:00
1:56 AM,54.0,52.0,93,30.05,5.0,SE,3.5,-,0.00,,Light Drizzle,130,2012-12-06 07:56:00
2:56 AM,53.1,52.0,96,30.04,7.0,ESE,4.6,-,0.00,,Overcast,110,2012-12-06 08:56:00
3:07 AM,53.6,51.8,94,30.05,7.0,ESE,6.9,-,N/A,,Overcast,110,2012-12-06 09:07:00
3:56 AM,53.1,52.0,96,30.03,3.0,SSE,3.5,-,N/A,,Overcast,150,2012-12-06 09:56:00
4:56 AM,53.1,52.0,96,30.02,4.0,SW,4.6,-,N/A,,Overcast,220,2012-12-06 10:56:00
5:41 AM,53.6,51.8,94,30.03,2.5,West,3.5,-,N/A,,Overcast,260,2012-12-06 11:41:00
5:49 AM,53.6,51.8,94,30.03,2.0,Calm,Calm,-,N/A,,Overcast,0,2012-12-06 11:49:00
5:56 AM,53.1,52.0,96,30.02,2.0,Calm,Calm,-,N/A,,Overcast,0,2012-12-06 11:56:00
6:48 AM,53.6,53.6,100,30.03,2.5,Calm,Calm,-,0.00,,Light Drizzle,0,2012-12-06 12:48:00
6:56 AM,53.1,52.0,96,30.02,3.0,Calm,Calm,-,0.00,,Light Drizzle,0,2012-12-06 12:56:00
7:08 AM,53.6,51.8,94,30.02,2.0,Calm,Calm,-,0.00,,Light Drizzle,0,2012-12-06 13:08:00
7:39 AM,53.6,53.6,100,30.03,2.0,Calm,Calm,-,0.00,,Light Drizzle,0,2012-12-06 13:39:00
7:56 AM,53.1,52.0,96,30.03,2.0,Calm,Calm,-,0.00,,Overcast,0,2012-12-06 13:56:00
8:50 AM,53.6,53.6,100,30.04,3.0,South,6.9,-,N/A,,Overcast,180,2012-12-06 14:50:00
8:56 AM,54.0,54.0,100,30.04,3.0,South,5.8,-,N/A,,Overcast,170,2012-12-06 14:56:00
9:18 AM,55.4,53.6,94,30.04,2.5,South,5.8,-,N/A,,Overcast,190,2012-12-06 15:18:00
9:56 AM,55.0,54.0,96,30.04,4.0,South,5.8,-,N/A,,Overcast,190,2012-12-06 15:56:00
10:56 AM,55.9,53.1,90,30.04,10.0,SSW,3.5,-,N/A,,Overcast,200,2012-12-06 16:56:00
11:56 AM,55.9,53.1,90,30.00,10.0,WSW,4.6,-,N/A,,Overcast,250,2012-12-06 17:56:00
12:56 PM,57.0,53.1,87,29.96,10.0,Calm,Calm,-,N/A,,Overcast,0,2012-12-06 18:56:00
1:36 PM,57.2,53.6,88,29.96,10.0,SSW,5.8,-,N/A,,Overcast,210,2012-12-06 19:36:00
1:56 PM,57.0,53.1,87,29.95,10.0,SSW,5.8,-,N/A,,Overcast,210,2012-12-06 19:56:00
2:56 PM,57.9,53.1,84,29.93,10.0,SW,4.6,-,N/A,,Overcast,220,2012-12-06 20:56:00
3:08 PM,57.2,53.6,88,29.93,10.0,SSW,3.5,-,N/A,,Overcast,200,2012-12-06 21:08:00
3:56 PM,59.0,53.1,81,29.92,10.0,Calm,Calm,-,N/A,,Overcast,0,2012-12-06 21:56:00
4:51 PM,57.2,53.6,88,29.92,10.0,SSE,3.5,-,N/A,,Scattered Clouds,160,2012-12-06 22:51:00
4:56 PM,57.0,53.1,87,29.91,10.0,SE,3.5,-,N/A,,Scattered Clouds,140,2012-12-06 22:56:00
5:56 PM,55.9,52.0,87,29.92,10.0,Calm,Calm,-,N/A,,Scattered Clouds,0,2012-12-06 23:56:00
6:09 PM,53.6,51.8,94,29.92,10.0,Calm,Calm,-,N/A,,Mostly Cloudy,0,2012-12-07 00:09:00
6:40 PM,53.6,51.8,94,29.93,10.0,Calm,Calm,-,N/A,,Scattered Clouds,0,2012-12-07 00:40:00
6:56 PM,51.1,50.0,96,29.92,6.0,Calm,Calm,-,N/A,,Scattered Clouds,0,2012-12-07 00:56:00
7:56 PM,52.0,51.1,97,29.92,5.0,Calm,Calm,-,N/A,,Clear,0,2012-12-07 01:56:00
8:56 PM,54.0,53.1,97,29.91,7.0,SE,4.6,-,N/A,,Clear,140,2012-12-07 02:56:00
9:47 PM,51.8,51.8,100,29.92,2.5,SE,4.6,-,N/A,,Mostly Cloudy,140,2012-12-07 03:47:00
9:48 PM,51.8,51.8,100,29.92,2.5,SE,4.6,-,N/A,,Mostly Cloudy,140,2012-12-07 03:48:00
9:56 PM,53.1,53.1,100,29.91,2.5,SSE,4.6,-,N/A,,Mostly Cloudy,150,2012-12-07 03:56:00
9:58 PM,51.8,51.8,100,29.92,0.8,SSE,3.5,-,N/A,,Mostly Cloudy,150,2012-12-07 03:58:00
10:11 PM,55.4,53.6,94,29.92,2.5,SSE,6.9,-,N/A,Fog,Patches of Fog,160,2012-12-07 04:11:00
10:23 PM,55.4,55.4,100,29.91,1.8,SSE,9.2,-,N/A,Fog,Patches of Fog,150,2012-12-07 04:23:00
10:29 PM,55.4,55.4,100,29.91,0.1,SSE,8.1,-,N/A,Fog,Fog,150,2012-12-07 04:29:00
10:47 PM,55.4,55.4,100,29.91,0.5,SSE,9.2,-,N/A,Fog,Fog,160,2012-12-07 04:47:00
10:56 PM,55.9,55.0,97,29.91,0.5,SSE,9.2,-,N/A,Fog,Fog,150,2012-12-07 04:56:00
11:35 PM,55.4,55.4,100,29.91,0.2,SSE,8.1,-,N/A,Fog,Fog,160,2012-12-07 05:35:00
11:39 PM,55.4,55.4,100,29.91,0.1,SSE,8.1,-,N/A,Fog,Fog,160,2012-12-07 05:39:00
11:56 PM,55.9,55.9,100,29.91,0.1,SSE,8.1,-,N/A,Fog,Fog,160,2012-12-07 05:56:00